Location: Unspecified
(0.0000°N, 0.0000°E)
Time: 22:39:32
(UTC+00:00)

ISS - Pass Details

Date: 25 April 2018
Orbit: 403 x 406 km, 51.6° (Epoch: 25 April)

Event Time Altitude Azimuth Distance (km) Brightness Sun altitude
Exits shadow 05:10:14 19° 267° (W) 1,041 -2.4 -11.6°
Maximum altitude 05:11:38 25° 305° (NW) 849 -2.6 -11.3°
Drops below altitude 10° 05:14:22 10° 3° (N) 1,441 -0.8 -10.6°
Sets 05:16:39 0° 17° (NNE) 2,296 0.4 -10.1°
